Location: Brachbach
(49.1847°N, 9.7240°E)
Time: 07:45:24
(UTC+00:00)

Cosmos 1025 Rocket - Pass Details

Date: 06 August 2024
Orbit: 590 x 612 km, 82.5° (Epoch: 07 September)

Event Time Altitude Azimuth Distance (km) Brightness Sun altitude
Rises 03:17:37 0° 359° (N) 2,884 7.0 -6.9°
Reaches altitude 10° 03:20:09 10° 12° (NNE) 1,978 6.4 -6.5°
Maximum altitude 03:23:52 26° 70° (ENE) 1,213 5.6 -6.0°
Drops below altitude 10° 03:27:33 10° 127° (SE) 1,971 5.9 -5.5°
Sets 03:30:03 0° 140° (SE) 2,871 6.6 -5.2°
